K7SKM Weather Reports


Display with metric or nautical units.
time (UTC)temp
F
wind
direction
speed
MPH
gust
MPH
rain 1hr
in
rain 24hr
in
rain mn
in
humidity
%
barometer
mb
20260509173213 64 269 0.0 0.0 0.00 0.00 0.00 59 1025.8
20260509172709 65 268 0.0 0.0 0.00 0.00 0.00 59 1025.5
20260509172205 64 289 3.0 5.0 0.00 0.00 0.00 58 1025.6
20260509171701 62 286 2.0 7.0 0.00 0.00 0.00 60 1025.7
20260509171157 64 224 0.0 0.0 0.00 0.00 0.00 59 1025.7
20260509170654 62 274 1.0 5.0 0.00 0.00 0.00 62 1025.6
20260509170151 62 284 3.0 5.0 0.00 0.00 0.00 61 1025.6
20260509165649 64 255 0.0 0.0 0.00 0.00 0.00 61 1025.8
20260509165144 62 234 0.0 0.0 0.00 0.00 0.00 64 1025.9
20260509164641 61 279 5.0 7.0 0.00 0.00 0.00 65 1026.0
20260509164136 61 243 0.0 0.0 0.00 0.00 0.00 65 1026.0
20260509163634 61 264 2.0 5.0 0.00 0.00 0.00 65 1026.1
20260509163129 62 260 0.0 0.0 0.00 0.00 0.00 65 1026.1
20260509162627 62 261 0.0 0.0 0.00 0.00 0.00 63 1025.9
20260509162123 63 216 0.0 0.0 0.00 0.00 0.00 62 1026.0
20260509161619 63 258 0.0 0.0 0.00 0.00 0.00 64 1026.2
20260509161115 60 163 0.0 0.0 0.00 0.00 0.00 69 1025.9
20260509160611 59 268 0.0 0.0 0.00 0.00 0.00 69 1026.2
20260509160106 60 249 0.0 0.0 0.00 0.00 0.00 70 1026.3
20260509155603 58 265 0.0 0.0 0.00 0.00 0.00 71 1026.5
20260509155059 58 288 0.0 0.0 0.00 0.00 0.00 72 1026.5
20260509154555 57 265 0.0 0.0 0.00 0.00 0.00 74 1026.6
20260509154052 56 239 0.0 0.0 0.00 0.00 0.00 75 1026.5
20260509153549 57 267 0.0 0.0 0.00 0.00 0.00 75 1026.7
20260509153046 56 268 0.0 0.0 0.00 0.00 0.00 74 1026.7
20260509152542 57 198 0.0 0.0 0.00 0.00 0.00 74 1026.5
20260509152040 57 94 0.0 0.0 0.00 0.00 0.00 74 1026.5
20260509151535 57 189 0.0 0.0 0.00 0.00 0.00 75 1026.7
20260509151033 57 192 0.0 0.0 0.00 0.00 0.00 75 1026.8
20260509150531 56 156 0.0 0.0 0.00 0.00 0.00 76 1027.0
20260509150029 56 169 0.0 0.0 0.00 0.00 0.00 76 1026.9
20260509145524 56 130 0.0 0.0 0.00 0.00 0.00 74 1026.9
20260509145019 57 152 0.0 0.0 0.00 0.00 0.00 73 1027.1
20260509144517 55 178 0.0 0.0 0.00 0.00 0.00 78 1027.0
20260509144014 53 153 0.0 0.0 0.00 0.00 0.00 80 1027.1
20260509143511 52 130 0.0 0.0 0.00 0.00 0.00 81 1027.1
20260509143009 52 135 0.0 0.0 0.00 0.00 0.00 82 1027.1
20260509142504 52 120 0.0 0.0 0.00 0.00 0.00 82 1027.1
20260509141959 51 126 0.0 0.0 0.00 0.00 0.00 82 1027.1
20260509141456 51 127 0.0 0.0 0.00 0.00 0.00 82 1027.0
20260509140953 51 197 0.0 0.0 0.00 0.00 0.00 85 1027.2
20260509140449 50 142 0.0 0.0 0.00 0.00 0.00 86 1027.2
20260509135948 49 163 0.0 0.0 0.00 0.00 0.00 88 1027.0
20260509135445 49 146 0.0 0.0 0.00 0.00 0.00 91 1027.1
20260509134942 48 155 0.0 0.0 0.00 0.00 0.00 92 1027.2
20260509134440 48 144 0.0 0.0 0.00 0.00 0.00 92 1027.1
20260509133937 48 150 0.0 0.0 0.00 0.00 0.00 92 1027.3
20260509133433 48 120 0.0 0.0 0.00 0.00 0.00 92 1027.2
20260509132932 48 140 0.0 0.0 0.00 0.00 0.00 93 1027.4
20260509132429 48 143 0.0 0.0 0.00 0.00 0.00 93 1027.2
20260509131926 48 160 0.0 0.0 0.00 0.00 0.00 93 1027.2
20260509131423 48 130 0.0 0.0 0.00 0.00 0.00 93 1027.1
20260509130920 47 180 0.0 0.0 0.00 0.00 0.00 92 1027.0
20260509130415 47 192 0.0 0.0 0.00 0.00 0.00 92 1027.0
20260509125913 47 169 0.0 0.0 0.00 0.00 0.00 91 1026.9
20260509125409 47 194 0.0 0.0 0.00 0.00 0.00 90 1027.0
20260509124905 47 174 0.0 0.0 0.00 0.00 0.00 90 1026.8
20260509124402 47 170 0.0 0.0 0.00 0.00 0.00 90 1026.9
20260509123900 47 170 0.0 0.0 0.00 0.00 0.00 90 1027.0
20260509123357 48 167 0.0 0.0 0.00 0.00 0.00 90 1027.0
20260509122853 48 172 0.0 0.0 0.00 0.00 0.00 89 1027.0
20260509122350 48 172 0.0 0.0 0.00 0.00 0.00 89 1026.8
20260509121847 48 162 0.0 0.0 0.00 0.00 0.00 89 1026.9
20260509121343 48 176 0.0 0.0 0.00 0.00 0.00 89 1027.0
20260509120842 48 176 0.0 0.0 0.00 0.00 0.00 89 1027.1
20260509120339 48 175 0.0 0.0 0.00 0.00 0.00 89 1026.9
20260509115837 48 183 0.0 0.0 0.00 0.00 0.00 88 1027.0
20260509115334 48 185 0.0 0.0 0.00 0.00 0.00 88 1026.9
20260509114832 48 185 0.0 0.0 0.00 0.00 0.00 87 1027.0
20260509114330 48 191 0.0 0.0 0.00 0.00 0.00 87 1026.8
20260509113829 48 191 0.0 0.0 0.00 0.00 0.00 86 1026.9
20260509113326 48 191 0.0 0.0 0.00 0.00 0.00 86 1027.1
20260509112823 48 191 0.0 0.0 0.00 0.00 0.00 85 1027.1
20260509112320 49 192 0.0 0.0 0.00 0.00 0.00 85 1026.8
20260509111817 49 179 0.0 0.0 0.00 0.00 0.00 84 1026.9
20260509111314 49 179 0.0 0.0 0.00 0.00 0.00 84 1027.0
20260509110811 49 179 0.0 0.0 0.00 0.00 0.00 84 1026.8
20260509110307 49 179 0.0 0.0 0.00 0.00 0.00 84 1027.1
20260509105806 50 178 0.0 0.0 0.00 0.00 0.00 83 1027.0
20260509105306 50 178 0.0 0.0 0.00 0.00 0.00 83 1027.2
20260509104800 50 178 0.0 0.0 0.00 0.00 0.00 82 1027.0
20260509104256 50 179 0.0 0.0 0.00 0.00 0.00 82 1027.3
20260509103755 51 178 0.0 0.0 0.00 0.00 0.00 81 1027.1
20260509103252 51 178 0.0 0.0 0.00 0.00 0.00 81 1027.3
20260509102750 51 178 0.0 0.0 0.00 0.00 0.00 80 1027.3
20260509102247 51 182 0.0 0.0 0.00 0.00 0.00 80 1027.4
20260509101743 52 176 0.0 0.0 0.00 0.00 0.00 79 1027.4
20260509101239 52 176 0.0 0.0 0.00 0.00 0.00 79 1027.1
20260509100737 52 176 0.0 0.0 0.00 0.00 0.00 78 1027.3
20260509100234 53 176 0.0 0.0 0.00 0.00 0.00 78 1027.2
20260509095730 53 176 0.0 0.0 0.00 0.00 0.00 78 1027.4
20260509095228 53 171 0.0 0.0 0.00 0.00 0.00 78 1027.3
20260509094725 53 156 0.0 0.0 0.00 0.00 0.00 78 1027.3
20260509094222 53 177 0.0 0.0 0.00 0.00 0.00 78 1027.4
20260509093720 53 177 0.0 0.0 0.00 0.00 0.00 78 1027.4
20260509093217 53 178 0.0 0.0 0.00 0.00 0.00 77 1027.4
20260509092715 53 178 0.0 0.0 0.00 0.00 0.00 77 1027.4
20260509092213 53 177 0.0 0.0 0.00 0.00 0.00 77 1027.4
20260509091711 53 179 0.0 0.0 0.00 0.00 0.00 77 1027.5
20260509091206 53 179 0.0 0.0 0.00 0.00 0.00 77 1027.7
20260509090704 53 180 0.0 0.0 0.00 0.00 0.00 77 1027.6
20260509090201 53 143 0.0 0.0 0.00 0.00 0.00 77 1027.7
20260509085659 53 178 0.0 0.0 0.00 0.00 0.00 77 1027.5
20260509085155 53 181 0.0 0.0 0.00 0.00 0.00 77 1027.6
20260509084652 53 178 0.0 0.0 0.00 0.00 0.00 77 1027.6
20260509084149 53 171 0.0 0.0 0.00 0.00 0.00 77 1027.8
20260509083647 53 174 0.0 0.0 0.00 0.00 0.00 76 1027.8
20260509083143 53 176 0.0 0.0 0.00 0.00 0.00 76 1027.6
20260509082640 53 139 0.0 0.0 0.00 0.00 0.00 75 1027.8
20260509082137 54 146 0.0 0.0 0.00 0.00 0.00 75 1027.8
20260509081633 54 178 0.0 0.0 0.00 0.00 0.00 75 1027.7
20260509081131 54 136 0.0 0.0 0.00 0.00 0.00 75 1027.7
20260509080629 54 170 0.0 0.0 0.00 0.00 0.00 75 1027.7
20260509080127 54 169 0.0 0.0 0.00 0.00 0.00 75 1027.7
20260509075624 54 154 0.0 0.0 0.00 0.00 0.00 74 1027.8
20260509075122 55 148 0.0 0.0 0.00 0.00 0.00 74 1027.8
20260509074619 55 145 0.0 0.0 0.00 0.00 0.00 74 1027.7
20260509074115 55 139 0.0 0.0 0.00 0.00 0.00 74 1027.6
20260509073612 55 111 0.0 0.0 0.00 0.00 0.00 74 1027.6
20260509073108 55 172 0.0 0.0 0.00 0.00 0.00 74 1027.6
20260509072605 55 156 0.0 0.0 0.00 0.00 0.00 74 1027.6
20260509072102 55 184 0.0 0.0 0.00 0.00 0.00 74 1027.7
20260509071558 55 160 0.0 0.0 0.00 0.00 0.00 73 1027.6
20260509071056 55 164 0.0 0.0 0.00 0.00 0.00 74 1027.5
20260509070553 55 163 0.0 0.0 0.00 0.00 0.00 73 1027.7
20260509070049 54 185 0.0 0.0 0.00 0.00 0.00 73 1027.6
20260509065545 54 130 0.0 0.0 0.00 0.00 0.00 74 1027.5
20260509065041 54 154 0.0 0.0 0.00 0.00 0.00 74 1027.3
20260509064539 54 166 0.0 0.0 0.00 0.00 0.00 74 1027.5
20260509064037 54 176 0.0 0.0 0.00 0.00 0.00 74 1027.6
20260509063532 54 145 0.0 0.0 0.00 0.00 0.00 74 1027.5
20260509063030 54 158 0.0 0.0 0.00 0.00 0.00 74 1027.5
20260509062526 54 154 0.0 0.0 0.00 0.00 0.00 74 1027.4
20260509062024 54 161 0.0 0.0 0.00 0.00 0.00 74 1027.5
20260509061521 53 160 0.0 0.0 0.00 0.00 0.00 74 1027.3
20260509061018 53 131 0.0 0.0 0.00 0.00 0.00 74 1027.5
20260509060515 53 140 0.0 0.0 0.00 0.00 0.00 74 1027.5
20260509060011 53 152 0.0 0.0 0.00 0.00 0.00 75 1027.4
20260509055506 53 165 0.0 0.0 0.00 0.00 0.00 74 1027.2
20260509055003 53 181 0.0 0.0 0.00 0.00 0.00 74 1027.2
20260509054500 53 184 0.0 0.0 0.00 0.00 0.00 74 1027.3
20260509053958 53 170 0.0 0.0 0.00 0.00 0.00 74 1027.3
20260509053456 53 189 0.0 0.0 0.00 0.00 0.00 73 1027.4
20260509052953 53 177 0.0 0.0 0.00 0.00 0.00 73 1027.2
20260509052450 53 174 0.0 0.0 0.00 0.00 0.00 73 1027.1
20260509051948 54 178 0.0 0.0 0.00 0.00 0.00 72 1027.4
20260509051446 54 176 0.0 0.0 0.00 0.00 0.00 72 1027.2
20260509050943 54 194 0.0 0.0 0.00 0.00 0.00 70 1027.3
20260509050439 55 187 0.0 0.0 0.00 0.00 0.00 70 1027.2
20260509045936 55 198 0.0 0.0 0.00 0.00 0.00 69 1027.2
20260509045433 56 216 0.0 0.0 0.00 0.00 0.00 69 1027.2
20260509044930 55 214 0.0 0.0 0.00 0.00 0.00 69 1027.1
20260509044428 55 208 0.0 0.0 0.00 0.00 0.00 69 1027.2
20260509043925 55 190 0.0 0.0 0.00 0.00 0.00 69 1027.1
20260509043420 56 221 0.0 0.0 0.00 0.00 0.00 68 1027.2
20260509042916 56 202 0.0 0.0 0.00 0.00 0.00 67 1027.2
20260509042413 56 161 0.0 0.0 0.00 0.00 0.00 68 1027.1
20260509041909 56 161 0.0 0.0 0.00 0.00 0.00 68 1027.1
20260509041407 56 147 0.0 0.0 0.00 0.00 0.00 67 1026.9
20260509040905 56 191 0.0 0.0 0.00 0.00 0.00 67 1027.0
20260509040402 56 240 0.0 0.0 0.00 0.00 0.00 66 1026.9
20260509035859 57 190 0.0 0.0 0.00 0.00 0.00 66 1026.9
20260509035356 57 245 0.0 0.0 0.00 0.00 0.00 65 1026.8
20260509034852 57 250 0.0 0.0 0.00 0.00 0.00 64 1026.7
20260509034350 57 252 0.0 0.0 0.00 0.00 0.00 64 1026.7
20260509033847 57 263 0.0 0.0 0.00 0.00 0.00 64 1026.6
20260509033344 58 289 0.0 0.0 0.00 0.00 0.00 63 1026.5
20260509032840 58 206 0.0 0.0 0.00 0.00 0.00 63 1026.6
20260509032338 58 212 0.0 0.0 0.00 0.00 0.00 62 1026.5
20260509031836 59 223 0.0 0.0 0.00 0.00 0.00 61 1026.3
20260509031333 59 275 0.0 3.0 0.00 0.00 0.00 60 1026.4
20260509030830 59 243 0.0 0.0 0.00 0.00 0.00 60 1026.2
20260509030328 60 214 0.0 3.0 0.00 0.00 0.00 59 1026.3
20260509025825 60 290 0.0 3.0 0.00 0.00 0.00 58 1026.2
20260509025320 60 306 1.0 5.0 0.00 0.00 0.00 58 1026.3
20260509024816 60 350 4.0 10.0 0.00 0.00 0.00 57 1026.3
20260509024312 60 237 0.0 3.0 0.00 0.00 0.00 58 1026.1
20260509023809 61 211 0.0 0.0 0.00 0.00 0.00 57 1026.0
20260509023307 61 240 0.0 0.0 0.00 0.00 0.00 56 1026.3
20260509022803 61 273 0.0 0.0 0.00 0.00 0.00 56 1026.1
20260509022301 62 289 2.0 5.0 0.00 0.00 0.00 55 1026.1
20260509021757 61 282 0.0 5.0 0.00 0.00 0.00 55 1025.9
20260509021254 62 231 0.0 0.0 0.00 0.00 0.00 54 1025.9
20260509020752 62 242 0.0 5.0 0.00 0.00 0.00 54 1026.1
20260509020250 62 240 0.0 0.0 0.00 0.00 0.00 53 1026.0
20260509015747 62 223 0.0 0.0 0.00 0.00 0.00 54 1026.0
20260509015245 62 278 4.0 7.0 0.00 0.00 0.00 53 1026.1
20260509014741 62 311 5.0 7.0 0.00 0.00 0.00 52 1026.0
20260509014239 62 282 0.0 3.0 0.00 0.00 0.00 52 1026.0
20260509013735 62 329 1.0 5.0 0.00 0.00 0.00 52 1026.1
20260509013230 62 244 0.0 3.0 0.00 0.00 0.00 52 1025.9
20260509012727 62 236 0.0 7.0 0.00 0.00 0.00 52 1026.0
20260509012224 63 303 3.0 5.0 0.00 0.00 0.00 51 1026.1
20260509011722 63 269 0.0 7.0 0.00 0.00 0.00 51 1025.9
20260509011219 63 268 0.0 0.0 0.00 0.00 0.00 51 1026.1
20260509010717 62 289 0.0 7.0 0.00 0.00 0.00 51 1026.2
20260509010213 62 329 3.0 7.0 0.00 0.00 0.00 51 1026.1
20260509005711 63 295 1.0 7.0 0.00 0.00 0.00 50 1026.1
20260509005208 63 214 1.0 5.0 0.00 0.00 0.00 51 1026.2
20260509004702 62 303 5.0 10.0 0.00 0.00 0.00 51 1026.2
20260509004200 62 287 0.0 12.0 0.00 0.00 0.00 51 1026.2
20260509003658 63 310 2.0 10.0 0.00 0.00 0.00 50 1026.3
20260509003155 64 254 0.0 7.0 0.00 0.00 0.00 50 1026.1
20260509002653 64 283 5.0 10.0 0.00 0.00 0.00 48 1026.0
20260509002150 64 223 0.0 5.0 0.00 0.00 0.00 49 1026.2
20260509001648 64 293 4.0 10.0 0.00 0.00 0.00 48 1026.2
20260509001143 64 317 4.0 7.0 0.00 0.00 0.00 49 1026.0
20260509000641 63 270 1.0 10.0 0.00 0.00 0.00 49 1026.1
20260509000138 66 249 0.0 5.0 0.00 0.00 0.00 47 1026.1
20260508235635 67 296 1.0 3.0 0.00 0.00 0.00 43 1026.0
20260508235132 66 276 0.0 5.0 0.00 0.00 0.00 45 1026.1
20260508234629 66 223 0.0 0.0 0.00 0.00 0.00 45 1025.9
20260508234125 65 287 0.0 5.0 0.00 0.00 0.00 47 1025.9
20260508233625 63 275 0.0 7.0 0.00 0.00 0.00 48 1025.9
20260508233122 63 117 0.0 7.0 0.00 0.00 0.00 48 1025.8
20260508232619 64 298 5.0 10.0 0.00 0.00 0.00 46 1026.0
20260508232116 64 271 3.0 10.0 0.00 0.00 0.00 46 1026.0
20260508231614 66 295 7.0 10.0 0.00 0.00 0.00 44 1026.1
20260508231110 65 317 8.0 12.0 0.00 0.00 0.00 45 1025.9
20260508230606 67 236 0.0 0.0 0.00 0.00 0.00 44 1026.1
20260508225601 64 223 0.0 0.0 0.00 0.00 0.00 46 1026.2
20260508225057 64 241 0.0 5.0 0.00 0.00 0.00 45 1026.2
20260508224555 64 148 0.0 0.0 0.00 0.00 0.00 45 1026.1
20260508224052 64 260 0.0 5.0 0.00 0.00 0.00 45 1026.3
20260508223550 67 297 0.0 0.0 0.00 0.00 0.00 42 1026.1
20260508223047 68 201 2.0 5.0 0.00 0.00 0.00 40 1026.2
20260508222544 68 213 0.0 3.0 0.00 0.00 0.00 42 1026.2
20260508222041 67 195 0.0 0.0 0.00 0.00 0.00 42 1026.1
20260508221537 66 280 0.0 0.0 0.00 0.00 0.00 44 1026.1
20260508221033 64 303 2.0 7.0 0.00 0.00 0.00 46 1026.1
20260508220530 63 280 5.0 7.0 0.00 0.00 0.00 46 1026.0
20260508220026 65 288 0.0 7.0 0.00 0.00 0.00 44 1026.2
20260508215524 67 204 0.0 5.0 0.00 0.00 0.00 45 1026.0
20260508215020 67 199 0.0 7.0 0.00 0.00 0.00 43 1026.0
20260508214518 66 137 1.0 7.0 0.00 0.00 0.00 43 1026.2
20260508214014 66 210 0.0 5.0 0.00 0.00 0.00 44 1026.2
20260508213512 65 235 0.0 0.0 0.00 0.00 0.00 45 1026.2
20260508213007 64 312 0.0 7.0 0.00 0.00 0.00 46 1026.1
20260508212504 64 237 0.0 5.0 0.00 0.00 0.00 46 1026.4
20260508212000 64 197 4.0 7.0 0.00 0.00 0.00 46 1026.4
20260508211455 63 215 0.0 5.0 0.00 0.00 0.00 47 1026.3
20260508210952 63 149 0.0 0.0 0.00 0.00 0.00 48 1026.2
20260508210449 64 219 0.0 0.0 0.00 0.00 0.00 47 1026.2
20260508205945 64 205 0.0 0.0 0.00 0.00 0.00 47 1026.3
20260508205443 63 210 0.0 7.0 0.00 0.00 0.00 46 1025.9
20260508204939 64 172 0.0 10.0 0.00 0.00 0.00 48 1026.1
20260508204437 63 314 0.0 7.0 0.00 0.00 0.00 47 1026.2
20260508203931 63 208 0.0 10.0 0.00 0.00 0.00 48 1026.0
20260508203428 62 147 1.0 5.0 0.00 0.00 0.00 48 1026.0
20260508202924 62 183 0.0 5.0 0.00 0.00 0.00 49 1026.0
20260508202421 60 157 0.0 7.0 0.00 0.00 0.00 51 1026.0
20260508201918 61 212 1.0 12.0 0.00 0.00 0.00 49 1025.8
20260508201415 60 315 1.0 5.0 0.00 0.00 0.00 52 1025.9
20260508200912 61 303 4.0 7.0 0.00 0.00 0.00 51 1025.9
20260508200409 62 264 3.0 10.0 0.00 0.00 0.00 49 1026.1
20260508195904 62 149 0.0 10.0 0.00 0.00 0.00 48 1025.9
20260508195401 64 206 0.0 7.0 0.00 0.00 0.00 47 1026.1
20260508194857 62 137 2.0 12.0 0.00 0.00 0.00 49 1025.7
20260508194354 62 211 1.0 10.0 0.00 0.00 0.00 49 1025.9
20260508193851 63 264 0.0 7.0 0.00 0.00 0.00 46 1026.0
20260508193348 62 219 1.0 7.0 0.00 0.00 0.00 48 1025.9
20260508192844 62 163 5.0 7.0 0.00 0.00 0.00 49 1025.9
20260508192341 61 168 3.0 7.0 0.00 0.00 0.00 49 1025.8
20260508191838 61 241 0.0 3.0 0.00 0.00 0.00 50 1025.8
20260508191336 61 221 2.0 5.0 0.00 0.00 0.00 50 1026.0
20260508190833 59 239 0.0 10.0 0.00 0.00 0.00 54 1025.9
20260508190329 60 279 6.0 10.0 0.00 0.00 0.00 52 1026.1
20260508185826 59 176 1.0 5.0 0.00 0.00 0.00 54 1026.0
20260508185323 58 188 1.0 12.0 0.00 0.00 0.00 56 1025.9
20260508184820 58 252 0.0 5.0 0.00 0.00 0.00 56 1025.7
20260508184317 57 247 0.0 5.0 0.00 0.00 0.00 57 1026.0
20260508183814 57 191 0.0 3.0 0.00 0.00 0.00 58 1026.3
20260508183311 56 245 0.0 0.0 0.00 0.00 0.00 59 1025.9
20260508182806 56 237 0.0 10.0 0.00 0.00 0.00 60 1025.9
20260508182306 57 199 1.0 5.0 0.00 0.00 0.00 59 1025.9
20260508181759 56 144 0.0 5.0 0.00 0.00 0.00 60 1025.8
20260508181256 57 219 0.0 3.0 0.00 0.00 0.00 60 1025.6
20260508180753 57 218 0.0 3.0 0.00 0.00 0.00 60 1025.8
20260508180250 56 216 1.0 5.0 0.00 0.00 0.00 60 1025.5
20260508175746 56 240 0.0 3.0 0.00 0.00 0.00 61 1025.4
20260508175243 56 215 0.0 0.0 0.00 0.00 0.00 61 1025.5
20260508174741 56 253 0.0 3.0 0.00 0.00 0.00 61 1025.4
20260508174238 57 240 0.0 3.0 0.00 0.00 0.00 61 1025.5
20260508173734 56 183 0.0 5.0 0.00 0.00 0.00 62 1025.4
20260508173231 56 164 0.0 3.0 0.00 0.00 0.00 62 1025.3